Weather History for Abilene, TX

Change the Weather History Date:

Saturday, December 31, 2011

  Actual Average Record
Temperature  
Mean Temperature 61 °F 44 °F  
Max Temperature 79 °F 56 °F 85 °F (1951)
Min Temperature 42 °F 33 °F 9 °F (1958)
Degree Days  
Heating Degree Days 4 21  
Month to date heating degree days 638 612  
Since 1 July heating degree days 1025 1045  
Cooling Degree Days 0 0  
Month to date cooling degree days 0 1  
Year to date cooling degree days 3517 2409  
Growing Degree Days 11 (Base 50)    
Moisture  
Dew Point 29 °F    
Average Humidity 38    
Maximum Humidity 58    
Minimum Humidity 17    
Precipitation  
Precipitation 0.00 in 0.04 in 0.96 in (1984)
Month to date precipitation 1.93 1.23  
Year to date precipitation 16.83 24.82  
Sea Level Pressure  
Sea Level Pressure 29.99 in    
Wind  
Wind Speed 13 mph (SSW)    
Max Wind Speed 33 mph    
Max Gust Speed 40 mph    
Visibility 10 miles    
Events      
T = Trace of Precipitation, MM = Missing Value Source: NWS Daily Summary

Daily Weather History Graph

Daily Weather History Graph

Search for Another Location

Airport:

Trip Planner

Search our weather history database for the weather conditions in past years. The results will help you decide how hot, cold, wet, or windy it might be!

Date:

Astronomy

Dec. 31, 2011 Rise Set
Actual Time 7:39 AM CST 5:43 PM CST
Civil Twilight 7:12 AM CST 6:10 PM CST
Nautical Twilight 6:42 AM CST 6:41 PM CST
Astronomical Twilight 6:12 AM CST 7:11 PM CST
Moon 11:51 AM CST (12/31) No Moon Set
Length of Visible Light 10h 57m
Length of Day
10h 03m
Waxing Crescent, 45% of the Moon is Illuminated
Dec 31
Waxing Crescent
Jan 1
First Quarter
Jan 9
Full
Jan 16
Last Quarter
Jan 23
New

Hourly Weather History & Observations

Time (CST) Temp. Windchill Dew Point Humidity Pressure Visibility Wind Dir Wind Speed Gust Speed Precip Events Conditions
12:52 AM 44.1 °F 39.5 °F 28.9 °F 55% 30.01 in 10.0 mi South 8.1 mph - N/A   Clear
1:52 AM 45.0 °F 39.7 °F 30.0 °F 56% 29.99 in 10.0 mi South 10.4 mph - N/A   Clear
2:52 AM 43.0 °F 38.8 °F 28.9 °F 58% 29.99 in 10.0 mi SSE 6.9 mph - N/A   Clear
3:52 AM 45.0 °F 39.7 °F 28.9 °F 53% 29.98 in 10.0 mi South 10.4 mph - N/A   Clear
4:52 AM 45.0 °F 41.2 °F 28.0 °F 52% 29.97 in 10.0 mi SSE 6.9 mph - N/A   Clear
5:52 AM 45.0 °F 40.1 °F 28.0 °F 52% 29.97 in 10.0 mi South 9.2 mph - N/A   Clear
6:52 AM 46.9 °F - 28.0 °F 48% 29.97 in 10.0 mi South 6.9 mph - N/A   Clear
7:52 AM 48.9 °F - 27.0 °F 43% 29.98 in 10.0 mi SSW 12.7 mph - N/A   Clear
8:52 AM 52.0 °F - 26.1 °F 37% 29.98 in 10.0 mi South 10.4 mph - N/A   Clear
9:52 AM 57.0 °F - 28.0 °F 33% 29.98 in 10.0 mi SW 15.0 mph 20.7 mph N/A   Clear
10:52 AM 62.1 °F - 30.0 °F 30% 29.96 in 10.0 mi SW 18.4 mph 27.6 mph N/A   Clear
11:52 AM 66.9 °F - 33.1 °F 28% 29.92 in 10.0 mi SSW 15.0 mph - N/A   Clear
12:52 PM 72.0 °F - 33.1 °F 24% 29.88 in 10.0 mi SW 15.0 mph - N/A   Clear
1:52 PM 75.0 °F - 35.1 °F 23% 29.85 in 10.0 mi SW 15.0 mph - N/A   Clear
2:52 PM 77.0 °F - 34.0 °F 21% 29.85 in 10.0 mi SW 11.5 mph - N/A   Clear
3:52 PM 79.0 °F - 30.9 °F 17% 29.85 in 10.0 mi SW 13.8 mph - N/A   Clear
4:52 PM 77.0 °F - 30.9 °F 19% 29.85 in 10.0 mi SSW 12.7 mph - N/A   Clear
5:52 PM 69.1 °F - 33.1 °F 26% 29.89 in 10.0 mi SW 8.1 mph - N/A   Clear
6:52 PM 64.9 °F - 33.1 °F 31% 29.94 in 10.0 mi SSW 6.9 mph - N/A   Clear
7:52 PM 60.1 °F - 33.1 °F 36% 29.99 in 10.0 mi SW 6.9 mph - N/A   Clear
8:38 PM 60.8 °F - 30.2 °F 31% 30.13 in 10.0 mi North 21.9 mph 29.9 mph N/A   Clear
8:52 PM 60.1 °F - 27.0 °F 28% 30.13 in 10.0 mi North 23.0 mph 35.7 mph N/A   Clear
9:52 PM 55.9 °F - 21.0 °F 26% 30.19 in 10.0 mi North 26.5 mph 33.4 mph N/A   Clear
10:52 PM 53.1 °F - 21.0 °F 29% 30.26 in 10.0 mi North 21.9 mph 29.9 mph N/A   Clear
11:52 PM 48.9 °F - 26.1 °F 41% 30.30 in 10.0 mi North 21.9 mph 34.5 mph N/A   Clear